Regional Weather Roundup
Issued by NWS Green Bay, WI

Home | Current Version | Previous Version | Graphics & Text | Print | Product List | Glossary Off
Versions: 1 2 3 4 5 6 7 8 9 10 11 12 13 14 15 16 17 18 19 20 21 22 23 24 25 26 27 28 29 30 31 32 33 34 35 36 37 38 39 40 41 42 43 44 45 46 47 48 49 50

000
ASUS43 KGRB 232001
RWRGRB

NORTH-CENTRAL AND NORTHEAST WISCONSIN REGIONAL WEATHER ROUNDUP
NATIONAL WEATHER SERVICE GREEN BAY WI
300 PM CDT MON OCT 23 2017

WIZ005-009-010>012-018-019-232100-
NORTH CENTRAL WISCONSIN

CITY           SKY/WX    TMP DP  RH WIND       PRES   REMARKS
IRONWOOD       SUNNY     60  42  51 W6        29.67F
MANITOWISH WTR NOT AVBL
ARBOR VITAE    NOT AVBL
EAGLE RIVER    NOT AVBL
LAND O LAKES   NOT AVBL
RHINELANDER    CLOUDY    54  40  59 S5        29.69F
PHILLIPS       NOT AVBL
ANTIGO         NOT AVBL
TOMAHAWK       NOT AVBL
MERRILL        NOT AVBL
$$

WIZ013-073-232100-
NORTHEAST WISCONSIN

CITY           SKY/WX    TMP DP  RH WIND       PRES   REMARKS
IRON MOUNTAIN  CLOUDY    53  38  56 S7        29.70F
MARINETTE      CLOUDY    52  47  83 CALM      29.74F
$$

WIZ017-030-035>037-045-232100-
CENTRAL WISCONSIN

CITY           SKY/WX    TMP DP  RH WIND       PRES   REMARKS
MEDFORD        NOT AVBL
WAUSAU         CLOUDY    55  41  59 SW7       29.68F
MOSINEE        PTSUNNY   55  43  62 SW7       29.70F
MARSHFIELD     CLOUDY    56  40  55 W7        29.69F
WISC RAPIDS    CLOUDY    57  45  64 SW7       29.71F
STEVENS POINT  NOT AVBL
WAUPACA        NOT AVBL
SHAWANO        NOT AVBL
CLINTONVILLE   NOT AVBL
WAUTOMA        CLOUDY   N/A N/A N/A SE6       29.71F
$$

WIZ038-039-048-051-232100-
FOX VALLEY

CITY           SKY/WX    TMP DP  RH WIND       PRES   REMARKS
NWS GREEN BAY  CLOUDY    53  46  77 CALM      29.73F
APPLETON       PTSUNNY   54  37  54 S5        29.71F
OSHKOSH        CLOUDY    54  40  59 CALM      29.71F
FOND DU LAC    CLOUDY    54  43  66 CALM      29.71F
$$

WIZ022-050-052-232100-
EAST CENTRAL WISCONSIN

CITY           SKY/WX    TMP DP  RH WIND       PRES   REMARKS
EPHRAIM        NOT AVBL
WASHINGTON ISL NOT AVBL
STURGEON BAY   CLOUDY    52  45  77 E3        29.73F
MANITOWOC      CLOUDY    53  44  71 N3        29.72F
SHEBOYGAN      CLOUDY    53  48  83 NW3       29.71F
$$

LMZ563-521-522-541>543-232100-
LAKESHORE

STATION/POSITION TIME  TEMP    WIND        PRES    VSBY  WAVE
                       AIR SEA DIR/SP/G                  HT/PER
                 (UTC) (F)     (DEG/KT/KT) (MB)    (MI)  (FT/S)
SHEBOYGAN LKSHOR 1900   50      20/  6/  7 1006.9F
KEWAUNEE LKSHORE 1930   49      30/  3/  3 1006.0F
NORTHPORT PIER   1940   53      CALM  /  2 1006.8F
N MID LAKE BUOY  1850   53 57  330/  2/  2 1008.8F         0
S GREEN BAY BUOY 1930   51 58   CALM  /  4 1006.8F
SISTER BAY LKSHO 1919   54        CALM       N/A
MENOMINEE LKSHOR 1930   51     120/  4/  5 1006.3F
$$




USA.gov is the U.S. government's official web portal to all federal, state and local government web resources and services.